Location: Mactaquac Provincial Park
(45.9573°N, 66.8897°W)
Time: 19:10:37
(UTC-03:00)

CENTAUR R/B - Visible Passes

Search period start: 27 March 2015 00:00
Search period end: 06 April 2015 00:00
Orbit: 887 x 1302 km, 63.5° (Epoch: 05 March)

Date Brightness Start Highest point End Pass type
(mag) Time Alt. Az. Time Alt. Az. Time Alt. Az.
28 Mar 4.5 06:39:35 10° S 06:44:52 31° ESE 06:50:43 10° NE visible
29 Mar 4.9 05:53:15 10° SSE 05:57:10 18° ESE 06:01:33 10° ENE visible
31 Mar 4.1 06:05:26 10° S 06:10:56 35° ESE 06:17:00 10° NE visible
01 Apr 4.7 05:18:51 10° SSE 05:23:12 21° ESE 05:28:02 10° ENE visible
02 Apr 5.1 04:34:08 10° ESE 04:35:34 11° ESE 04:37:29 10° E visible
02 Apr 3.0 06:18:46 10° SSW 06:24:55 65° ESE 06:31:45 10° NE visible
03 Apr 3.7 05:31:19 10° S 05:36:59 40° ESE 05:43:16 10° NE visible
04 Apr 4.4 04:44:31 10° SSE 04:49:13 24° ESE 04:54:26 10° ENE visible
05 Apr 4.8 03:59:01 10° SE 04:01:34 13° ESE 04:04:36 10° ENE visible
05 Apr 2.8 05:44:49 10° SSW 05:51:01 73° SE 05:57:56 10° NE visible
